EW5830 Weather Reports


time (UTC)temp
C
wind
direction
speed
KPH
gust
KPH
rain 1hr
cm
rain 24hr
cm
rain mn
cm
humidity
%
barometer
mb
20260507041003 12 241 12.9 25.7 0.00 0.00 0.00 85 1019.2
20260507040503 12 242 11.3 25.7 0.00 0.00 0.00 85 1019.1
20260507040003 12 238 11.3 22.5 0.00 0.00 0.00 85 1019.1
20260507035503 12 229 11.3 24.1 0.00 0.00 0.00 85 1019.0
20260507035003 12 215 9.7 24.1 0.00 0.00 0.00 85 1019.0
20260507034503 12 209 9.7 22.5 0.00 0.00 0.00 85 1019.0
20260507034024 12 212 8.0 22.5 0.00 0.00 0.00 85 1019.0
20260507033524 12 221 9.7 22.5 0.00 0.00 0.00 85 1018.9
20260507033003 12 231 11.3 25.7 0.00 0.00 0.00 85 1018.8
20260507032503 12 235 12.9 27.4 0.00 0.00 0.00 85 1018.8
20260507032003 12 237 11.3 27.4 0.00 0.00 0.00 85 1018.7
20260507031503 12 244 11.3 27.4 0.00 0.00 0.00 84 1018.7
20260507031003 12 249 12.9 27.4 0.00 0.00 0.00 84 1018.7
20260507030503 12 249 11.3 25.7 0.00 0.00 0.00 84 1018.6
20260507030003 12 248 11.3 25.7 0.00 0.00 0.00 84 1018.6
20260507025503 12 247 12.9 27.4 0.00 0.00 0.00 84 1018.6
20260507025003 12 241 12.9 27.4 0.00 0.00 0.00 84 1018.7
20260507024503 12 236 12.9 27.4 0.00 0.00 0.00 83 1018.7
20260507024003 12 238 12.9 27.4 0.00 0.00 0.00 83 1018.7
20260507023503 13 242 12.9 27.4 0.00 0.00 0.00 83 1018.7
20260507023003 13 243 11.3 25.7 0.00 0.00 0.00 83 1018.7
20260507022503 13 243 11.3 25.7 0.00 0.00 0.00 82 1018.7
20260507022003 13 250 11.3 24.1 0.00 0.00 0.00 82 1018.8
20260507021503 13 248 11.3 24.1 0.00 0.00 0.00 82 1018.8
20260507021003 13 242 12.9 24.1 0.00 0.00 0.00 81 1018.7
20260507020503 13 241 12.9 24.1 0.00 0.00 0.00 81 1018.7
20260507020003 13 243 11.3 24.1 0.00 0.00 0.00 81 1018.8
20260507015503 13 235 11.3 27.4 0.00 0.00 0.00 80 1018.8
20260507015003 13 231 12.9 27.4 0.00 0.00 0.00 80 1018.7
20260507014503 14 236 12.9 27.4 0.00 0.00 0.00 80 1018.8
20260507014003 14 239 12.9 24.1 0.00 0.00 0.00 79 1018.7
20260507013524 14 233 12.9 29.0 0.00 0.00 0.00 79 1018.8
20260507013003 14 234 12.9 29.0 0.00 0.00 0.00 78 1018.7
20260507012524 14 235 12.9 27.4 0.00 0.00 0.00 78 1018.7
20260507012003 14 235 12.9 35.4 0.00 0.00 0.00 78 1018.7
20260507011503 15 237 14.5 35.4 0.00 0.00 0.00 77 1018.8
20260507011003 15 232 12.9 30.6 0.00 0.00 0.00 76 1018.8
20260507010524 15 233 11.3 29.0 0.00 0.00 0.00 75 1018.9
20260507010003 15 233 11.3 29.0 0.00 0.00 0.00 76 1018.8
20260507005503 15 232 12.9 29.0 0.00 0.00 0.00 75 1018.7
20260507005003 16 230 14.5 30.6 0.00 0.00 0.00 74 1018.8
20260507004503 16 227 16.1 30.6 0.00 0.00 0.00 74 1018.8
20260507004003 16 229 14.5 30.6 0.00 0.00 0.00 73 1018.8
20260507003503 16 229 12.9 27.4 0.00 0.00 0.00 73 1018.8
20260507003003 16 225 12.9 27.4 0.00 0.00 0.00 72 1018.8
20260507002503 17 233 12.9 22.5 0.00 0.00 0.00 72 1018.9
20260507002003 17 240 11.3 27.4 0.00 0.00 0.00 72 1018.9
20260507001503 17 238 9.7 27.4 0.00 0.00 0.00 72 1018.8
20260507001003 17 236 9.7 24.1 0.00 0.00 0.00 72 1018.9
20260507000503 17 231 11.3 29.0 0.00 0.00 0.00 73 1019.0
20260507000003 17 232 14.5 29.0 0.00 0.00 0.00 72 1019.0
20260506235503 17 235 14.5 29.0 0.00 0.00 0.00 72 1019.0
20260506235003 17 235 14.5 29.0 0.00 0.00 0.00 72 1019.0
20260506234503 17 232 14.5 25.7 0.00 0.00 0.00 71 1018.9
20260506234003 17 226 12.9 25.7 0.00 0.00 0.00 72 1019.0
20260506233503 17 223 11.3 25.7 0.00 0.00 0.00 71 1019.0
20260506233003 17 232 12.9 27.4 0.00 0.00 0.00 72 1019.1
20260506232503 17 235 12.9 27.4 0.00 0.00 0.00 71 1019.1
20260506232003 17 236 12.9 24.1 0.00 0.00 0.00 72 1019.1
20260506231524 17 238 12.9 25.7 0.00 0.00 0.00 72 1019.1
20260506231003 17 238 14.5 29.0 0.00 0.00 0.00 71 1019.2
20260506230503 17 238 12.9 29.0 0.00 0.00 0.00 70 1019.2
20260506230003 18 241 11.3 27.4 0.00 0.00 0.00 69 1019.2
20260506225503 18 245 12.9 25.7 0.00 0.00 0.00 70 1019.3
20260506225003 18 243 12.9 27.4 0.00 0.00 0.00 69 1019.3
20260506224503 18 236 12.9 27.4 0.00 0.00 0.00 70 1019.4
20260506224003 18 231 12.9 25.7 0.00 0.00 0.00 71 1019.4
20260506223503 18 234 14.5 27.4 0.00 0.00 0.00 69 1019.5
20260506223024 18 238 12.9 27.4 0.00 0.00 0.00 68 1019.6
20260506222503 18 245 11.3 25.7 0.00 0.00 0.00 68 1019.6
20260506222003 18 243 11.3 24.1 0.00 0.00 0.00 68 1019.7
20260506221504 19 236 11.3 27.4 0.00 0.00 0.00 68 1019.7
20260506221024 19 238 12.9 27.4 0.00 0.00 0.00 69 1019.8
20260506220524 18 240 12.9 22.5 0.00 0.00 0.00 67 1019.9
20260506220003 18 239 12.9 25.7 0.00 0.00 0.00 67 1019.8
20260506215503 19 239 11.3 24.1 0.00 0.00 0.00 67 1020.0
20260506215003 19 239 11.3 24.1 0.00 0.00 0.00 67 1020.1
20260506214503 19 238 12.9 24.1 0.00 0.00 0.00 66 1020.0
20260506214003 20 242 11.3 22.5 0.00 0.00 0.00 66 1020.1
20260506213503 20 245 11.3 22.5 0.00 0.00 0.00 66 1020.1
20260506213003 20 246 11.3 22.5 0.00 0.00 0.00 66 1020.2
20260506212503 19 239 11.3 22.5 0.00 0.00 0.00 67 1020.1
20260506212003 20 238 11.3 22.5 0.00 0.00 0.00 66 1020.1
20260506211503 20 242 11.3 20.9 0.00 0.00 0.00 66 1020.1
20260506211003 20 236 9.7 19.3 0.00 0.00 0.00 65 1020.1
20260506210503 20 234 9.7 20.9 0.00 0.00 0.00 67 1020.1
20260506210003 20 238 9.7 20.9 0.00 0.00 0.00 67 1020.2
20260506205503 19 239 9.7 20.9 0.00 0.00 0.00 66 1020.2
20260506205003 20 234 9.7 20.9 0.00 0.00 0.00 65 1020.2
20260506204503 20 230 9.7 20.9 0.00 0.00 0.00 65 1020.3
20260506204003 20 231 9.7 19.3 0.00 0.00 0.00 64 1020.3
20260506203503 20 231 8.0 17.7 0.00 0.00 0.00 65 1020.3
20260506203024 20 235 9.7 20.9 0.00 0.00 0.00 65 1020.3
20260506202503 21 240 8.0 20.9 0.00 0.00 0.00 63 1020.4
20260506202024 21 242 8.0 16.1 0.00 0.00 0.00 65 1020.4
20260506201503 20 235 9.7 17.7 0.00 0.00 0.00 65 1020.5
20260506201003 20 233 9.7 17.7 0.00 0.00 0.00 65 1020.5
20260506200503 21 230 8.0 19.3 0.00 0.00 0.00 64 1020.6
20260506200003 21 228 9.7 20.9 0.00 0.00 0.00 65 1020.6
20260506195503 20 225 9.7 22.5 0.00 0.00 0.00 65 1020.6
20260506195003 21 214 9.7 22.5 0.00 0.00 0.00 65 1020.6
20260506194503 20 210 9.7 19.3 0.00 0.00 0.00 66 1020.7
20260506194003 20 214 9.7 19.3 0.00 0.00 0.00 64 1020.7
20260506193524 20 218 8.0 19.3 0.00 0.00 0.00 65 1020.7
20260506193003 20 217 8.0 19.3 0.00 0.00 0.00 64 1020.8
20260506192503 20 213 8.0 17.7 0.00 0.00 0.00 69 1020.8
20260506192003 20 220 9.7 22.5 0.00 0.00 0.00 66 1020.9
20260506191503 20 229 9.7 22.5 0.00 0.00 0.00 68 1021.0
20260506191003 20 222 8.0 20.9 0.00 0.00 0.00 67 1020.9
20260506190503 20 223 8.0 17.7 0.00 0.00 0.00 66 1021.0
20260506190003 20 235 6.4 16.1 0.00 0.00 0.00 67 1021.1
20260506185503 20 230 8.0 16.1 0.00 0.00 0.00 67 1021.1
20260506185003 20 223 8.0 22.5 0.00 0.00 0.00 66 1021.0
20260506184503 20 214 6.4 22.5 0.00 0.00 0.00 66 1021.0
20260506184003 20 205 6.4 20.9 0.00 0.00 0.00 67 1021.0
20260506183524 20 218 6.4 17.7 0.00 0.00 0.00 68 1021.1
20260506183003 19 215 8.0 20.9 0.00 0.00 0.00 68 1021.1
20260506182503 19 202 6.4 20.9 0.00 0.00 0.00 66 1021.1
20260506182003 19 212 6.4 14.5 0.00 0.00 0.00 67 1021.0
20260506181503 19 228 8.0 19.3 0.00 0.00 0.00 70 1021.1
20260506181003 18 234 8.0 19.3 0.00 0.00 0.00 69 1021.1
20260506180503 18 222 8.0 19.3 0.00 0.00 0.00 68 1021.1
20260506180024 18 219 8.0 20.9 0.00 0.00 0.00 69 1021.0
20260506175503 18 217 8.0 20.9 0.00 0.00 0.00 68 1020.9
20260506175003 18 208 6.4 19.3 0.00 0.00 0.00 70 1021.0
20260506174504 18 220 8.0 16.1 0.00 0.00 0.00 71 1021.0
20260506174003 18 234 6.4 16.1 0.00 0.00 0.00 69 1021.0
20260506173503 17 243 6.4 16.1 0.00 0.00 0.00 72 1021.0
20260506173003 17 225 6.4 16.1 0.00 0.00 0.00 72 1021.1
20260506172503 17 209 6.4 12.9 0.00 0.00 0.00 71 1021.0
20260506172003 17 224 4.8 11.3 0.00 0.00 0.00 74 1021.1
20260506171503 16 238 6.4 12.9 0.00 0.00 0.00 75 1021.2
20260506171024 16 246 6.4 12.9 0.00 0.00 0.00 74 1021.2
20260506170503 16 220 6.4 12.9 0.00 0.00 0.00 75 1021.2
20260506170003 16 208 4.8 12.9 0.00 0.00 0.00 74 1021.1
20260506165503 16 219 4.8 16.1 0.00 0.00 0.00 73 1021.0
20260506165003 17 206 4.8 16.1 0.00 0.00 0.00 73 1021.1
20260506164524 17 208 4.8 12.9 0.00 0.00 0.00 75 1021.0
20260506164024 16 208 3.2 12.9 0.00 0.00 0.00 76 1021.0
20260506163503 16 222 4.8 9.7 0.00 0.00 0.00 75 1021.0
20260506163003 16 233 4.8 11.3 0.00 0.00 0.00 74 1021.0
20260506162503 16 238 4.8 11.3 0.00 0.00 0.00 74 1021.1
20260506162003 16 241 4.8 12.9 0.00 0.00 0.00 74 1021.1
20260506161503 16 230 3.2 12.9 0.00 0.00 0.00 76 1021.1
20260506161003 15 218 3.2 8.0 0.00 0.00 0.00 78 1021.0
20260506160503 15 222 3.2 6.4 0.00 0.00 0.00 78 1021.0
20260506160003 15 234 3.2 6.4 0.00 0.00 0.00 78 1021.0
20260506155503 15 241 3.2 8.0 0.00 0.00 0.00 79 1021.0
20260506155003 14 244 3.2 12.9 0.00 0.00 0.00 79 1021.0
20260506154503 15 249 1.6 12.9 0.00 0.00 0.00 80 1021.1
20260506154003 15 246 1.6 11.3 0.00 0.00 0.00 80 1021.0
20260506153503 14 231 3.2 11.3 0.00 0.00 0.00 79 1021.0
20260506153003 14 214 3.2 9.7 0.00 0.00 0.00 80 1021.0
20260506152503 14 228 3.2 11.3 0.00 0.00 0.00 79 1021.0
20260506152003 15 247 3.2 11.3 0.00 0.00 0.00 80 1021.0
20260506151503 15 249 3.2 9.7 0.00 0.00 0.00 80 1020.9
20260506151003 15 246 3.2 8.0 0.00 0.00 0.00 81 1020.9
20260506150503 14 242 3.2 8.0 0.00 0.00 0.00 82 1020.9
20260506150003 13 239 3.2 11.3 0.00 0.00 0.00 83 1020.8
20260506145503 13 231 4.8 11.3 0.00 0.00 0.00 84 1020.9
20260506145003 13 236 3.2 9.7 0.00 0.00 0.00 86 1020.9
20260506144503 13 251 3.2 8.0 0.00 0.00 0.00 86 1020.8
20260506144003 13 245 4.8 9.7 0.00 0.00 0.00 87 1020.8
20260506143503 12 240 3.2 9.7 0.00 0.00 0.00 86 1020.8
20260506143003 12 220 3.2 11.3 0.00 0.00 0.00 86 1020.8
20260506142503 12 228 4.8 14.5 0.00 0.00 0.00 86 1020.8
20260506142003 12 243 3.2 14.5 0.00 0.00 0.00 86 1020.7
20260506141524 12 241 3.2 9.7 0.00 0.00 0.00 86 1020.6
20260506141003 12 238 3.2 9.7 0.00 0.00 0.00 86 1020.5
20260506140503 11 234 3.2 9.7 0.00 0.00 0.00 86 1020.5
20260506140003 11 233 1.6 6.4 0.00 0.00 0.00 86 1020.5
20260506135503 11 235 0.0 6.4 0.00 0.00 0.00 86 1020.4
20260506135003 11 240 0.0 3.2 0.00 0.00 0.00 86 1020.3
20260506134503 11 92 0.0 3.2 0.00 0.00 0.00 86 1020.3
20260506134003 11 81 0.0 3.2 0.00 0.00 0.00 86 1020.3
20260506133503 11 79 0.0 1.6 0.00 0.00 0.00 86 1020.3
20260506133003 12 312 0.0 3.2 0.00 0.00 0.00 86 1020.3
20260506132503 11 293 0.0 3.2 0.00 0.00 0.00 86 1020.2
20260506132003 11 288 0.0 3.2 0.00 0.00 0.00 86 1020.2
20260506131503 11 288 0.0 1.6 0.00 0.00 0.00 86 1020.2
20260506131003 11 290 0.0 3.2 0.00 0.00 0.00 86 1020.1
20260506130503 11 273 1.6 9.7 0.00 0.00 0.00 86 1020.1
20260506130003 11 267 1.6 9.7 0.00 0.00 0.00 85 1020.1
20260506125503 11 283 0.0 1.6 0.00 0.00 0.00 85 1020.1
20260506125003 11 283 0.0 1.6 0.00 0.00 0.00 85 1020.0
20260506124503 11 285 0.0 3.2 0.00 0.00 0.00 85 1020.0
20260506124003 11 293 0.0 3.2 0.00 0.00 0.00 85 1020.0
20260506123503 11 304 0.0 3.2 0.00 0.00 0.00 85 1020.0
20260506123003 11 307 0.0 3.2 0.00 0.03 0.00 85 1019.9
20260506122503 11 308 0.0 3.2 0.00 0.03 0.00 85 1019.9
20260506122003 11 299 0.0 3.2 0.00 0.03 0.00 85 1019.9
20260506121503 11 297 0.0 3.2 0.00 0.03 0.00 85 1019.8
20260506121003 11 303 1.6 4.8 0.00 0.03 0.00 85 1019.9
20260506120503 11 316 1.6 4.8 0.00 0.03 0.00 85 1019.8
20260506120003 11 324 1.6 4.8 0.00 0.03 0.00 85 1019.8
20260506115503 11 325 0.0 3.2 0.00 0.03 0.00 85 1019.8
20260506115003 11 301 1.6 8.0 0.00 0.03 0.00 85 1019.8
20260506114503 11 302 1.6 8.0 0.00 0.03 0.00 85 1019.7
20260506114003 11 312 1.6 6.4 0.00 0.03 0.00 85 1019.7
20260506113524 11 305 1.6 6.4 0.00 0.03 0.00 85 1019.7
20260506113003 11 303 1.6 4.8 0.00 0.03 0.00 85 1019.6
20260506112503 11 303 1.6 4.8 0.00 0.03 0.00 85 1019.6
20260506112003 11 312 1.6 4.8 0.00 0.03 0.00 85 1019.5
20260506111503 11 326 1.6 4.8 0.00 0.03 0.00 85 1019.5
20260506111003 11 312 1.6 4.8 0.00 0.03 0.00 84 1019.4
20260506110503 11 307 1.6 4.8 0.00 0.03 0.00 84 1019.4
20260506110024 11 312 1.6 4.8 0.00 0.03 0.00 84 1019.4
20260506105503 11 303 1.6 4.8 0.00 0.03 0.00 84 1019.3
20260506105003 11 319 1.6 4.8 0.00 0.03 0.00 84 1019.3
20260506104503 11 319 1.6 6.4 0.00 0.03 0.00 84 1019.4
20260506104003 11 302 1.6 6.4 0.00 0.03 0.00 84 1019.3
20260506103503 11 295 0.0 4.8 0.00 0.03 0.00 84 1019.3
20260506103003 11 271 0.0 4.8 0.00 0.03 0.00 84 1019.3
20260506102503 11 250 1.6 4.8 0.00 0.03 0.00 84 1019.3
20260506102003 11 249 1.6 4.8 0.00 0.03 0.00 84 1019.2
20260506101503 11 265 1.6 4.8 0.00 0.03 0.00 84 1019.2
20260506101003 11 272 1.6 4.8 0.00 0.03 0.00 84 1019.2
20260506100503 11 267 1.6 4.8 0.00 0.03 0.00 84 1019.2
20260506100003 11 267 0.0 4.8 0.00 0.03 0.00 84 1019.2
20260506095503 11 285 0.0 1.6 0.00 0.03 0.00 84 1019.3
20260506095003 11 286 0.0 3.2 0.00 0.03 0.00 84 1019.3
20260506094524 11 290 0.0 3.2 0.00 0.03 0.00 84 1019.3
20260506094003 11 285 0.0 3.2 0.00 0.03 0.00 84 1019.3
20260506093503 11 274 0.0 3.2 0.00 0.03 0.00 84 1019.3
20260506093003 11 241 1.6 3.2 0.00 0.03 0.00 84 1019.3
20260506092503 11 231 1.6 4.8 0.00 0.03 0.00 84 1019.2
20260506092003 12 234 1.6 4.8 0.00 0.03 0.00 84 1019.2
20260506091524 12 250 1.6 6.4 0.00 0.03 0.00 84 1019.1
20260506091003 12 254 3.2 6.4 0.00 0.03 0.00 84 1019.1
20260506090503 12 253 1.6 4.8 0.00 0.03 0.00 84 1019.2
20260506090003 12 268 1.6 4.8 0.00 0.03 0.00 84 1019.2
20260506085503 12 287 1.6 6.4 0.00 0.03 0.00 84 1019.2
20260506085003 12 287 1.6 6.4 0.00 0.03 0.00 84 1019.2
20260506084503 12 281 1.6 8.0 0.00 0.03 0.00 84 1019.2
20260506084003 12 257 3.2 8.0 0.00 0.03 0.00 84 1019.2
20260506083503 12 251 3.2 9.7 0.00 0.03 0.00 84 1019.2
20260506083003 12 249 3.2 9.7 0.00 0.03 0.00 84 1019.2
20260506082503 12 252 3.2 9.7 0.00 0.03 0.00 84 1019.3
20260506082003 12 253 1.6 9.7 0.00 0.03 0.00 84 1019.3
20260506081503 12 256 3.2 8.0 0.00 0.03 0.00 84 1019.3
20260506081003 12 262 3.2 8.0 0.00 0.03 0.00 84 1019.3
20260506080503 12 263 3.2 6.4 0.00 0.03 0.00 84 1019.3
20260506073503 12 273 1.6 8.0 0.00 0.03 0.00 83 1019.0
20260506073003 12 277 1.6 8.0 0.00 0.03 0.00 83 1019.0
20260506072503 12 281 1.6 8.0 0.00 0.03 0.00 83 1019.0
20260506072003 12 277 1.6 8.0 0.00 0.03 0.00 83 1019.0
20260506071503 12 283 1.6 8.0 0.00 0.05 0.00 83 1019.0
20260506071003 12 291 1.6 6.4 0.00 0.05 0.00 83 1019.0
20260506070503 12 284 3.2 11.3 0.00 0.05 0.00 83 1019.0
20260506062503 12 271 3.2 9.7 0.00 0.05 0.05 83 1018.6
20260506062024 12 263 3.2 8.0 0.00 0.05 0.05 83 1018.5
20260506061503 12 264 3.2 9.7 0.00 0.05 0.05 83 1018.5
20260506061024 12 268 3.2 11.3 0.00 0.05 0.05 83 1018.5
20260506060503 12 271 3.2 11.3 0.00 0.05 0.05 83 1018.5
20260506051003 13 251 3.2 11.3 0.00 0.05 0.05 83 1018.3
20260506050503 13 250 4.8 11.3 0.00 0.05 0.05 83 1018.3
20260506045003 13 254 3.2 6.4 0.00 0.05 0.05 83 1018.0
20260506044503 13 256 3.2 6.4 0.00 0.05 0.05 83 1018.0
20260506044003 13 248 3.2 11.3 0.00 0.05 0.05 83 1018.0
20260506043503 13 244 3.2 11.3 0.00 0.05 0.05 83 1018.0
20260506043003 13 257 3.2 8.0 0.00 0.05 0.05 83 1017.9
20260506042503 13 250 3.2 9.7 0.00 0.05 0.05 83 1017.9
20260506042003 13 242 4.8 12.9 0.00 0.05 0.05 83 1017.8
20260506041503 13 241 6.4 12.9 0.00 0.05 0.05 83 1017.8